Location: Observatoire du C�gep de Trois-Rivi�res � Champlain
(46.4753°N, 72.3231°W)
Time: 03:59:19
(UTC-04:00)

Tiangong 2 - Visible Passes

Search period start: 23 June 2018 00:00
Search period end: 03 July 2018 00:00
Orbit: 291 x 296 km, 42.8° (Epoch: 21 June)

Date Brightness Start Highest point End Pass type
(mag) Time Alt. Az. Time Alt. Az. Time Alt. Az.
29 Jun 3.1 03:30:59 11° SSE 03:31:16 11° SSE 03:32:01 10° SE visible
30 Jun 2.5 03:36:00 16° S 03:36:34 17° SSE 03:38:20 10° ESE visible
01 Jul 2.0 03:40:56 19° SSW 03:41:50 23° SSE 03:43:58 10° ESE visible
02 Jul 1.5 03:45:48 19° SW 03:47:04 30° S 03:49:23 10° ESE visible
